Weather History for Mount Pleasant, IA

Change the Weather History Date:

Wednesday, February 13, 2013

  Actual Average Record
Temperature  
Mean Temperature 40 °F -  
Max Temperature 52 °F 36 °F 61 °F (1954)
Min Temperature 29 °F 18 °F -13 °F (1986)
Degree Days  
Heating Degree Days 24    
Moisture  
Dew Point 27 °F    
Average Humidity 61    
Maximum Humidity 79    
Minimum Humidity 33    
Precipitation  
Precipitation 0.00 in - - ()
Sea Level Pressure  
Sea Level Pressure 29.80 in    
Wind  
Wind Speed 7 mph (SW)    
Max Wind Speed 13 mph    
Max Gust Speed 20 mph    
Visibility 9 miles    
Events      
Averages and records for this station are not official NWS values.
T = Trace of Precipitation, MM = Missing Value Source: NWS Daily Summary

Daily Weather History Graph

Daily Weather History Graph

Search for Another Location

Airport:

Trip Planner

Search our weather history database for the weather conditions in past years. The results will help you decide how hot, cold, wet, or windy it might be!

Date:

Astronomy

Feb. 13, 2013 Rise Set
Actual Time 7:02 AM CST 5:38 PM CST
Civil Twilight 6:34 AM CST 6:06 PM CST
Nautical Twilight 6:02 AM CST 6:39 PM CST
Astronomical Twilight 5:30 AM CST 7:10 PM CST
Moon 8:29 AM CST (2/13) 9:44 PM CST (2/13)
Length of Visible Light 11h 32m
Length of Day
10h 35m
Waxing Crescent, 14% of the Moon is Illuminated
Feb 13
Waxing Crescent
Feb 17
First Quarter
Feb 25
Full
Mar 4
Last Quarter
Mar 11
New

Hourly Weather History & Observations

Time (CST) Temp. Windchill Dew Point Humidity Pressure Visibility Wind Dir Wind Speed Gust Speed Precip Events Conditions
12:15 AM 34.2 °F 27.5 °F 26.8 °F 74% 29.91 in 10.0 mi SSW 8.1 mph - N/A   Clear
12:35 AM 34.0 °F 27.2 °F 26.8 °F 75% 29.90 in 10.0 mi SSW 8.1 mph - N/A   Clear
12:55 AM 34.2 °F 27.5 °F 27.0 °F 75% 29.89 in 10.0 mi SSW 8.1 mph - N/A   Clear
1:15 AM 34.0 °F 28.0 °F 27.0 °F 75% 29.88 in 10.0 mi SSW 6.9 mph - N/A   Clear
1:35 AM 33.1 °F 26.9 °F 26.6 °F 77% 29.87 in 10.0 mi SSW 6.9 mph - N/A   Clear
1:55 AM 33.4 °F 27.3 °F 27.0 °F 77% 29.87 in 10.0 mi South 6.9 mph - N/A   Clear
2:15 AM 33.4 °F 27.3 °F 26.6 °F 76% 29.86 in 7.0 mi South 6.9 mph - N/A   Clear
2:35 AM 32.5 °F 27.1 °F 25.9 °F 76% 29.86 in 7.0 mi SW 5.8 mph - N/A   Clear
2:55 AM 32.2 °F 26.7 °F 26.1 °F 78% 29.85 in 7.0 mi SSW 5.8 mph - N/A   Clear
3:15 AM 32.0 °F 25.6 °F 26.1 °F 79% 29.84 in 7.0 mi SSW 6.9 mph - N/A   Clear
3:35 AM 32.9 °F 26.7 °F 25.7 °F 75% 29.84 in 7.0 mi South 6.9 mph - N/A   Clear
3:55 AM 32.4 °F 26.9 °F 25.7 °F 76% 29.83 in 7.0 mi SSW 5.8 mph - N/A   Clear
4:15 AM 32.0 °F 26.4 °F 25.9 °F 78% 29.83 in 7.0 mi South 5.8 mph - N/A   Clear
4:35 AM 31.5 °F 26.8 °F 24.8 °F 76% 29.82 in 7.0 mi SW 4.6 mph - N/A   Clear
4:55 AM 30.9 °F 26.2 °F 24.8 °F 78% 29.82 in 7.0 mi WSW 4.6 mph - N/A   Clear
5:15 AM 31.5 °F 28.1 °F 24.8 °F 76% 29.82 in 7.0 mi SW 3.5 mph - N/A   Clear
5:35 AM 31.1 °F 26.4 °F 24.8 °F 77% 29.81 in 7.0 mi SSW 4.6 mph - N/A   Clear
5:55 AM 31.5 °F 28.1 °F 24.8 °F 76% 29.81 in 7.0 mi SW 3.5 mph - N/A   Clear
6:15 AM 30.2 °F 24.3 °F 23.9 °F 77% 29.80 in 7.0 mi SW 5.8 mph - N/A   Clear
6:35 AM 29.8 °F 23.9 °F 23.4 °F 77% 29.80 in 7.0 mi WSW 5.8 mph - N/A   Clear
6:55 AM 29.8 °F 23.9 °F 23.7 °F 78% 29.81 in 7.0 mi WSW 5.8 mph - N/A   Clear
7:15 AM 30.4 °F 24.5 °F 23.9 °F 77% 29.81 in 5.0 mi SW 5.8 mph - N/A   Haze
7:35 AM 30.2 °F 25.4 °F 24.1 °F 78% 29.81 in 5.0 mi SW 4.6 mph - N/A   Haze
7:55 AM 32.0 °F 28.7 °F 25.3 °F 76% 29.82 in 5.0 mi SW 3.5 mph - N/A   Haze
8:15 AM 33.1 °F 27.7 °F 25.9 °F 75% 29.82 in 7.0 mi WSW 5.8 mph - N/A   Clear
8:35 AM 34.7 °F 29.6 °F 26.2 °F 71% 29.82 in 7.0 mi WSW 5.8 mph - N/A   Clear
8:55 AM 36.3 °F 32.5 °F 26.8 °F 68% 29.82 in 7.0 mi WSW 4.6 mph - N/A   Clear
9:15 AM 37.6 °F 33.1 °F 27.3 °F 66% 29.82 in 10.0 mi WSW 5.8 mph - N/A   Clear
9:35 AM 39.2 °F 35.9 °F 27.7 °F 63% 29.82 in 10.0 mi WSW 4.6 mph - N/A   Clear
9:55 AM 40.3 °F 36.3 °F 27.9 °F 61% 29.82 in 10.0 mi WSW 5.8 mph - N/A   Clear
10:15 AM 41.7 °F 38.8 °F 27.9 °F 58% 29.82 in 10.0 mi WSW 4.6 mph - N/A   Clear
10:35 AM 42.6 °F 37.8 °F 27.5 °F 55% 29.82 in 10.0 mi WSW 8.1 mph - N/A   Clear
10:55 AM 43.5 °F 38.3 °F 27.3 °F 53% 29.82 in 10.0 mi WSW 9.2 mph - N/A   Clear
11:15 AM 45.0 °F 40.1 °F 27.1 °F 50% 29.81 in 10.0 mi WSW 9.2 mph - N/A   Clear
11:35 AM 45.3 °F 40.1 °F 26.2 °F 47% 29.81 in 10.0 mi WSW 10.4 mph - N/A   Clear
11:55 AM 46.4 °F 41.5 °F 25.3 °F 44% 29.81 in 10.0 mi WSW 10.4 mph 17.3 mph N/A   Clear
12:15 PM 47.5 °F - 25.0 °F 41% 29.80 in 10.0 mi West 10.4 mph - N/A   Clear
12:35 PM 47.3 °F - 26.6 °F 45% 29.79 in 10.0 mi West 9.2 mph 17.3 mph N/A   Clear
12:55 PM 47.7 °F - 26.2 °F 43% 29.79 in 10.0 mi West 12.7 mph 17.3 mph N/A   Clear
1:15 PM 48.2 °F - 27.3 °F 44% 29.78 in 10.0 mi WSW 10.4 mph 16.1 mph N/A   Clear
1:35 PM 49.6 °F - 26.2 °F 40% 29.78 in 10.0 mi WSW 11.5 mph 19.6 mph N/A   Clear
1:55 PM 49.3 °F - 25.7 °F 40% 29.78 in 10.0 mi WSW 11.5 mph - N/A   Clear
2:15 PM 50.9 °F - 25.3 °F 37% 29.77 in 10.0 mi West 10.4 mph - N/A   Clear
2:35 PM 51.1 °F - 25.5 °F 37% 29.77 in 10.0 mi WSW 10.4 mph - N/A   Clear
2:55 PM 51.8 °F - 24.4 °F 34% 29.77 in 10.0 mi West 8.1 mph - N/A   Clear
3:15 PM 52.2 °F - 23.9 °F 33% 29.77 in 10.0 mi WSW 9.2 mph - N/A   Clear
3:55 PM 52.3 °F - 23.5 °F 33% 29.77 in 10.0 mi WSW 5.8 mph - N/A   Clear
4:15 PM 51.8 °F - 27.3 °F 39% 29.77 in 10.0 mi SW 9.2 mph - N/A   Clear
4:35 PM 51.4 °F - 27.9 °F 40% 29.77 in 10.0 mi SW 6.9 mph - N/A   Clear
4:55 PM 50.2 °F - 29.5 °F 45% 29.77 in 10.0 mi SW 8.1 mph - N/A   Clear
5:15 PM 48.7 °F - 30.2 °F 49% 29.77 in 10.0 mi SSW 6.9 mph - N/A   Clear
5:35 PM 46.6 °F - 30.0 °F 53% 29.77 in 10.0 mi SSW 6.9 mph - N/A   Clear
5:55 PM 45.3 °F 42.3 °F 29.5 °F 54% 29.77 in 10.0 mi SSW 5.8 mph - N/A   Clear
6:15 PM 44.4 °F 41.2 °F 29.3 °F 55% 29.77 in 10.0 mi SSW 5.8 mph - N/A   Clear
6:35 PM 43.0 °F 38.8 °F 28.9 °F 58% 29.77 in 10.0 mi South 6.9 mph - N/A   Clear
6:55 PM 41.9 °F 37.5 °F 28.8 °F 60% 29.76 in 10.0 mi South 6.9 mph - N/A   Clear
7:15 PM 41.4 °F 36.2 °F 29.1 °F 62% 29.77 in 10.0 mi South 8.1 mph - N/A   Clear
7:35 PM 41.0 °F 35.8 °F 29.1 °F 63% 29.76 in 10.0 mi South 8.1 mph - N/A   Clear
7:55 PM 41.0 °F 35.8 °F 28.6 °F 61% 29.76 in 10.0 mi South 8.1 mph - N/A   Clear
8:15 PM 41.2 °F 36.0 °F 28.9 °F 62% 29.75 in 10.0 mi South 8.1 mph - N/A   Clear
8:35 PM 42.1 °F 37.1 °F 28.4 °F 58% 29.75 in 10.0 mi South 8.1 mph - N/A   Scattered Clouds
8:55 PM 41.9 °F 36.3 °F 28.4 °F 59% 29.75 in 10.0 mi South 9.2 mph - N/A   Clear
9:15 PM 41.7 °F 36.1 °F 28.9 °F 61% 29.75 in 10.0 mi South 9.2 mph - N/A   Mostly Cloudy
9:35 PM 41.9 °F 36.3 °F 29.1 °F 61% 29.74 in 10.0 mi South 9.2 mph - N/A   Mostly Cloudy
9:55 PM 42.1 °F 37.1 °F 29.3 °F 61% 29.74 in 10.0 mi South 8.1 mph - N/A   Scattered Clouds
10:15 PM 42.4 °F 37.0 °F 29.1 °F 59% 29.73 in 10.0 mi SSW 9.2 mph - N/A   Scattered Clouds
10:35 PM 42.1 °F 36.6 °F 29.7 °F 61% 29.73 in 10.0 mi SSW 9.2 mph - N/A   Scattered Clouds
10:55 PM 42.1 °F 37.1 °F 29.8 °F 62% 29.72 in 10.0 mi SSW 8.1 mph - N/A   Clear
11:15 PM 42.4 °F 37.0 °F 29.3 °F 60% 29.72 in 10.0 mi SSW 9.2 mph - N/A   Scattered Clouds
11:35 PM 43.5 °F 38.3 °F 29.1 °F 57% 29.72 in 10.0 mi SSW 9.2 mph - N/A   Mostly Cloudy
11:55 PM 43.3 °F 38.1 °F 29.7 °F 59% 29.71 in 10.0 mi SSW 9.2 mph - N/A   Overcast